Location: Franzen
(48.6167°N, 15.3833°E)
Time: 08:44:48
(UTC+00:00)

A-11 Canister half - Pass Details

Date: 02 August 2021
Orbit: 1515 x 1685 km, 47.2° (Epoch: 21 September)

Event Time Altitude Azimuth Distance (km) Brightness Sun altitude
Rises 16:27:17 0° 240° (WSW) 4,783 12.5 19.2°
Reaches altitude 10° 16:30:21 10° 238° (WSW) 3,822 12.1 18.7°
Maximum altitude 16:40:02 68° 158° (SSE) 1,749 9.5 17.1°
Drops below altitude 10° 16:50:02 10° 79° (ENE) 3,941 10.6 15.5°
Sets 16:53:15 0° 77° (ENE) 4,939 11.1 15.0°
